This is the latest recevied weather packets stored in our database for station/object IU1OPQ-3. If no packets are shown the sender has not sent any weather packets the latest 1 day(s).
| Time | Temp. | Humidity | Pressure | Rain* | Wind** | Luminosity | Snow |
|---|---|---|---|---|---|---|---|
| 1836274383 | 19.44° C | 83% | 1022 hPa | 0 mm | 1.79 m/s, 277° | - | - |
| 1778027401 | 10.56° C | 98% | 1010.9 hPa | 0.25 mm | 0.89 m/s, 234° | - | - |
| 1778026501 | 10.56° C | 98% | 1010.9 hPa | 0 mm | 0.89 m/s, 2° | - | - |
| 1778025601 | 11.11° C | 98% | 1011.4 hPa | 0 mm | 0.89 m/s, 169° | - | - |
| 1778024700 | 11.11° C | 99% | 1011.6 hPa | 0 mm | 0.45 m/s, 147° | - | - |
| 1778023801 | 11.11° C | 99% | 1011.5 hPa | 0 mm | 0.45 m/s, 97° | - | - |
| 1778022901 | 11.11° C | 99% | 1011.7 hPa | 0 mm | 1.34 m/s, 84° | - | - |
| 1778022000 | 11.11° C | 99% | 1011.4 hPa | 0 mm | 0.89 m/s, 84° | - | - |
| 1778021101 | 11.11° C | 99% | 1011.4 hPa | 0 mm | 0.45 m/s, 92° | - | - |
| 1778020200 | 11.11° C | 99% | 1012 hPa | 0 mm | 0.45 m/s, 80° | - | - |
| 1778019301 | 11.11° C | 99% | 1012 hPa | 0 mm | 0.89 m/s, 106° | - | - |
| 1778018401 | 11.11° C | 99% | 1011.8 hPa | 0 mm | 2.24 m/s, 64° | - | - |
| 1778017501 | 11.11° C | 99% | 1012.1 hPa | 0 mm | 0.89 m/s, 40° | - | - |
| 1778016600 | 11.11° C | 99% | 1012.4 hPa | 0 mm | 1.34 m/s, 78° | - | - |
| 1778015700 | 11.11° C | 99% | 1012.5 hPa | 0 mm | 0.89 m/s, 93° | - | - |
| 1778014801 | 11.11° C | 99% | 1012.4 hPa | 0 mm | 1.34 m/s, 103° | - | - |
| 1778013900 | 11.11° C | 99% | 1012.6 hPa | 0 mm | 0.89 m/s, 97° | - | - |
| 1778013000 | 11.11° C | 98% | 1012.4 hPa | 0 mm | 1.79 m/s, 79° | - | - |
| 1778012101 | 11.11° C | 98% | 1012.5 hPa | 0 mm | 0.89 m/s, 67° | - | - |
| 1778011200 | 11.11° C | 98% | 1012.7 hPa | 0 mm | 1.34 m/s, 87° | - | - |
| 1778010300 | 11.11° C | 98% | 1012.5 hPa | 0 mm | 1.34 m/s, 87° | - | - |
| 1778009400 | 11.11° C | 98% | 1012.3 hPa | 0 mm | 0.45 m/s, 85° | - | - |
| 1778008501 | 11.67° C | 98% | 1012.2 hPa | 0 mm | 1.34 m/s, 76° | - | - |
| 1778007601 | 11.11° C | 98% | 1012.3 hPa | 0 mm | 0.45 m/s, 91° | - | - |
| 1778006700 | 11.11° C | 98% | 1012.2 hPa | 0 mm | 0.89 m/s, 88° | - | - |
* Rain latest hour (hover to see other rain measurements)
** Current wind speed in m/s (hover to see current wind gust speed)